When you browse on this site, cookies collect data to enhance your experience and personalize the content and advertising you see.
Visit our Privacy Policy to learn more. By continuing to use the site, you agree to this use of cookies and data.
  • In Latvia
  • List of Countries
  • For 7 days
  • Water Temperature
  • Satellite Maps
  • Weather Map
  • Weather Widgets
  • user-avatar
    Login

    Hourly Weather Shusha

    Today, 16 July, Tuesday

    Time Temperature Precipitation Wind Pressure Humidity
    00:00 +18°C° 0 mm 1 mps 653 mmHg 86%
    01:00 +16°C° 0 mm 1 mps 653 mmHg 87%
    02:00 +16°C° 0 mm 1 mps 653 mmHg 87%
    03:00 +16°C° 0 mm 1 mps 653 mmHg 90%
    04:00 +18°C° 0 mm 1 mps 654 mmHg 88%
    05:00 +19°C° 0 mm 1 mps 654 mmHg 86%
    06:00 +17°C° 0 mm 0 mps 655 mmHg 83%
    07:00 +21°C° 0 mm 1 mps 655 mmHg 78%
    08:00 +22°C° 0 mm 1 mps 655 mmHg 72%
    09:00 +24°C° 0 mm 1 mps 655 mmHg 65%
    10:00 +25°C° 0 mm 2 mps 655 mmHg 61%
    11:00 +26°C° 0 mm 2 mps 656 mmHg 56%
    12:00 +27°C° 0 mm 2 mps 656 mmHg 52%
    13:00 +28°C° 0 mm 3 mps 655 mmHg 51%
    14:00 +28°C° 0 mm 3 mps 655 mmHg 49%
    15:00 +29°C° 0 mm 3 mps 655 mmHg 48%
    16:00 +28°C° 0 mm 2 mps 655 mmHg 50%
    17:00 +28°C° 0 mm 2 mps 655 mmHg 52%
    18:00 +27°C° 0 mm 2 mps 655 mmHg 55%
    19:00 +26°C° 0 mm 1 mps 655 mmHg 59%
    20:00 +24°C° 0 mm 1 mps 655 mmHg 63%
    21:00 +23°C° 0 mm 1 mps 655 mmHg 67%
    22:00 +22°C° 0 mm 1 mps 655 mmHg 67%
    23:00 +22°C° 0 mm 1 mps 655 mmHg 68%

    Tomorrow, 17 July, Wednesday

    Time Temperature Precipitation Wind Pressure Humidity
    00:00 +20°C° 0 mm 2 mps 655 mmHg 68%
    01:00 +20°C° 0 mm 2 mps 655 mmHg 68%
    02:00 +20°C° 0 mm 1 mps 655 mmHg 67%
    03:00 +20°C° 0 mm 1 mps 655 mmHg 67%
    04:00 +20°C° 0 mm 1 mps 655 mmHg 67%
    05:00 +21°C° 0 mm 1 mps 656 mmHg 66%
    06:00 +21°C° 0 mm 1 mps 656 mmHg 66%
    07:00 +22°C° 0 mm 1 mps 656 mmHg 62%
    08:00 +24°C° 0 mm 1 mps 656 mmHg 59%
    09:00 +25°C° 0 mm 2 mps 657 mmHg 55%
    10:00 +26°C° 0 mm 2 mps 657 mmHg 53%
    11:00 +27°C° 0 mm 3 mps 657 mmHg 52%
    12:00 +28°C° 0 mm 3 mps 657 mmHg 50%
    13:00 +28°C° 0 mm 3 mps 656 mmHg 48%
    14:00 +29°C° 0 mm 4 mps 656 mmHg 47%
    15:00 +29°C° 0 mm 4 mps 656 mmHg 46%
    16:00 +28°C° 0 mm 4 mps 656 mmHg 50%
    17:00 +27°C° 0 mm 3 mps 655 mmHg 54%
    18:00 +26°C° 0 mm 3 mps 655 mmHg 58%
    19:00 +24°C° 0 mm 3 mps 655 mmHg 62%
    20:00 +23°C° 0 mm 2 mps 655 mmHg 67%
    21:00 +21°C° 0 mm 1 mps 655 mmHg 71%
    22:00 +21°C° 0 mm 1 mps 655 mmHg 71%
    23:00 +21°C° 0 mm 1 mps 655 mmHg 71%

    Day after tomorrow, 18 July, Thursday

    Time Temperature Precipitation Wind Pressure Humidity
    00:00 +21°C° 0 mm 1 mps 655 mmHg 70%
    01:00 +20°C° 0 mm 1 mps 655 mmHg 71%
    02:00 +20°C° 0 mm 1 mps 655 mmHg 72%
    03:00 +20°C° 0 mm 1 mps 655 mmHg 73%
    04:00 +20°C° 0 mm 1 mps 655 mmHg 72%
    05:00 +20°C° 0 mm 1 mps 655 mmHg 70%
    06:00 +21°C° 0 mm 1 mps 656 mmHg 69%
    07:00 +22°C° 0 mm 1 mps 656 mmHg 63%
    08:00 +24°C° 0 mm 2 mps 657 mmHg 58%
    09:00 +25°C° 0 mm 2 mps 657 mmHg 52%
    10:00 +26°C° 0 mm 2 mps 657 mmHg 49%
    11:00 +28°C° 0 mm 3 mps 657 mmHg 46%
    12:00 +29°C° 0 mm 3 mps 657 mmHg 43%
    13:00 +29°C° 0 mm 3 mps 657 mmHg 41%
    14:00 +30°C° 0 mm 3 mps 656 mmHg 39%
    15:00 +30°C° 0 mm 3 mps 656 mmHg 37%
    16:00 +30°C° 0 mm 2 mps 656 mmHg 40%
    17:00 +29°C° 0 mm 2 mps 655 mmHg 43%
    18:00 +28°C° 0 mm 2 mps 655 mmHg 47%
    19:00 +26°C° 0 mm 2 mps 655 mmHg 51%
    20:00 +24°C° 0 mm 1 mps 655 mmHg 55%
    21:00 +22°C° 0 mm 1 mps 655 mmHg 60%
    22:00 +22°C° 0 mm 1 mps 655 mmHg 60%
    23:00 +22°C° 0 mm 1 mps 655 mmHg 60%

    19 July, Friday

    Time Temperature Precipitation Wind Pressure Humidity
    00:00 +21°C° 0 mm 2 mps 655 mmHg 59%
    01:00 +21°C° 0 mm 1 mps 656 mmHg 60%
    02:00 +21°C° 0 mm 1 mps 656 mmHg 60%
    03:00 +21°C° 0 mm 1 mps 656 mmHg 61%
    04:00 +21°C° 0 mm 1 mps 656 mmHg 62%
    05:00 +22°C° 0 mm 1 mps 656 mmHg 63%
    06:00 +22°C° 0 mm 1 mps 657 mmHg 64%
    07:00 +24°C° 0 mm 1 mps 657 mmHg 59%
    08:00 +25°C° 0 mm 1 mps 658 mmHg 55%
    09:00 +26°C° 0 mm 2 mps 659 mmHg 51%
    10:00 +27°C° 0 mm 2 mps 659 mmHg 48%
    11:00 +28°C° 0 mm 3 mps 659 mmHg 46%
    12:00 +29°C° 0 mm 3 mps 659 mmHg 44%
    13:00 +30°C° 0 mm 3 mps 658 mmHg 42%
    14:00 +30°C° 0 mm 3 mps 658 mmHg 41%
    15:00 +30°C° 0 mm 4 mps 658 mmHg 40%
    16:00 +29°C° 0 mm 4 mps 658 mmHg 44%
    17:00 +28°C° 0 mm 4 mps 658 mmHg 48%
    18:00 +28°C° 0 mm 4 mps 658 mmHg 51%
    19:00 +26°C° 0 mm 3 mps 658 mmHg 55%
    20:00 +24°C° 0 mm 2 mps 659 mmHg 59%
    21:00 +23°C° 0 mm 2 mps 659 mmHg 62%
    22:00 +21°C° 0 mm 2 mps 659 mmHg 63%
    23:00 +21°C° 0 mm 2 mps 659 mmHg 63%

    20 July, Saturday

    Time Temperature Precipitation Wind Pressure Humidity
    00:00 +21°C° 0 mm 2 mps 659 mmHg 63%
    01:00 +20°C° 0 mm 2 mps 660 mmHg 63%
    02:00 +20°C° 0 mm 2 mps 660 mmHg 63%
    03:00 +20°C° 0 mm 2 mps 660 mmHg 63%
    04:00 +20°C° 0 mm 2 mps 660 mmHg 63%
    05:00 +21°C° 0 mm 2 mps 661 mmHg 62%
    06:00 +22°C° 0 mm 1 mps 661 mmHg 61%
    07:00 +24°C° 0 mm 2 mps 662 mmHg 55%
    08:00 +25°C° 0 mm 2 mps 662 mmHg 49%
    09:00 +27°C° 0 mm 3 mps 663 mmHg 43%
    10:00 +28°C° 0 mm 3 mps 663 mmHg 41%
    11:00 +29°C° 0 mm 4 mps 663 mmHg 39%
    12:00 +29°C° 0 mm 4 mps 663 mmHg 37%
    13:00 +30°C° 0 mm 4 mps 663 mmHg 37%
    14:00 +30°C° 0 mm 5 mps 663 mmHg 37%
    15:00 +30°C° 0 mm 5 mps 662 mmHg 36%
    16:00 +29°C° 0 mm 4 mps 662 mmHg 40%
    17:00 +28°C° 0 mm 4 mps 662 mmHg 43%
    18:00 +28°C° 0 mm 4 mps 662 mmHg 46%
    19:00 +26°C° 0 mm 3 mps 662 mmHg 52%
    20:00 +24°C° 0 mm 2 mps 662 mmHg 57%
    21:00 +21°C° 0 mm 2 mps 662 mmHg 62%
    22:00 +20°C° 0 mm 2 mps 662 mmHg 63%
    23:00 +20°C° 0 mm 2 mps 662 mmHg 63%

    21 July, Sunday

    Time Temperature Precipitation Wind Pressure Humidity
    00:00 +19°C° 0 mm 2 mps 662 mmHg 64%
    01:00 +19°C° 0 mm 2 mps 662 mmHg 63%
    02:00 +20°C° 0 mm 1 mps 662 mmHg 63%
    03:00 +20°C° 0 mm 1 mps 662 mmHg 62%
    04:00 +20°C° 0 mm 1 mps 662 mmHg 62%
    05:00 +21°C° 0 mm 1 mps 662 mmHg 62%
    06:00 +21°C° 0 mm 1 mps 662 mmHg 62%
    07:00 +23°C° 0 mm 2 mps 662 mmHg 57%
    08:00 +24°C° 0 mm 2 mps 663 mmHg 52%
    09:00 +26°C° 0 mm 2 mps 663 mmHg 48%
    10:00 +27°C° 0 mm 2 mps 663 mmHg 44%
    11:00 +28°C° 0 mm 3 mps 663 mmHg 41%
    12:00 +30°C° 0 mm 3 mps 663 mmHg 38%
    13:00 +30°C° 0 mm 3 mps 662 mmHg 37%
    14:00 +31°C° 0 mm 3 mps 662 mmHg 36%
    15:00 +33°C° 0 mm 3 mps 661 mmHg 35%
    16:00 +31°C° 0 mm 3 mps 661 mmHg 37%
    17:00 +30°C° 0 mm 2 mps 661 mmHg 40%
    18:00 +29°C° 0 mm 2 mps 661 mmHg 43%
    19:00 +27°C° 0 mm 2 mps 660 mmHg 48%
    20:00 +25°C° 0 mm 2 mps 660 mmHg 52%
    21:00 +23°C° 0 mm 1 mps 660 mmHg 56%
    22:00 +23°C° 0 mm 1 mps 660 mmHg 57%
    23:00 +23°C° 0 mm 1 mps 660 mmHg 57%
    Show more